Location: Владивосток
(43.1151°N, 131.8856°E)
Time: 02:32:33
(UTC+10:00)

First-Move - Pass Details

Date: 05 July 2022
Orbit: 572 x 658 km, 97.6° (Epoch: 09 August)

Event Time Altitude Azimuth Distance (km) Brightness Sun altitude
Rises 04:06:20 0° 31° (NNE) 2,968 ? -13.4°
Reaches altitude 10° 04:09:21 10° 53° (NE) 2,064 ? -13.1°
Maximum altitude 04:12:09 16° 91° (E) 1,698 ? -12.7°
Drops below altitude 10° 04:14:56 10° 129° (SE) 2,067 ? -12.4°
Sets 04:17:57 0° 151° (SSE) 2,976 ? -12.0°
